Location: Austin
(30.3000°N, 97.7500°W)
Time: 01:59:46
(UTC-05:00)

ACS3 Solar Sail - Visible Passes

Search period start: 16 July 2024 00:00
Search period end: 26 July 2024 00:00
Orbit: 993 x 1023 km, 97.4° (Epoch: 15 July)

Date Brightness Start Highest point End Pass type
(mag) Time Alt. Az. Time Alt. Az. Time Alt. Az.
16 Jul 7.0 00:20:12 14° WSW 00:21:13 14° W 00:24:24 10° WNW visible
16 Jul 6.5 21:24:20 10° E 21:27:42 16° ENE 21:31:11 10° NNE visible
16 Jul 5.1 23:09:41 49° SSW 23:11:08 63° W 23:17:19 10° NNW visible
17 Jul 5.7 21:59:09 24° ESE 22:01:42 32° ENE 22:07:07 10° N visible
17 Jul 6.1 23:44:30 28° WSW 23:45:41 30° W 23:51:02 10° NW visible
18 Jul 4.8 22:33:59 44° SE 22:35:54 66° ENE 22:42:04 10° N visible
19 Jul 7.0 00:19:19 13° WSW 00:20:23 14° W 00:23:20 10° WNW visible
19 Jul 6.5 21:23:27 11° E 21:26:47 16° ENE 21:30:26 10° NNE visible
19 Jul 5.1 23:08:49 48° SSW 23:10:17 61° W 23:16:26 10° NNW visible
20 Jul 5.6 21:58:17 25° ESE 22:00:49 33° ENE 22:06:17 10° N visible
20 Jul 6.2 23:43:38 27° WSW 23:44:48 29° W 23:50:08 10° NW visible
21 Jul 4.8 22:33:06 45° SE 22:35:01 69° ENE 22:41:13 10° N visible
22 Jul 7.1 00:18:27 13° WSW 00:19:31 13° W 00:22:16 10° WNW visible
22 Jul 6.4 21:22:36 11° E 21:25:54 17° ENE 21:29:41 10° NNE visible
22 Jul 5.2 23:07:57 47° SSW 23:09:25 59° W 23:15:33 10° NNW visible
23 Jul 5.6 21:57:26 25° ESE 21:59:56 35° ENE 22:05:28 10° N visible
23 Jul 6.2 23:42:46 26° WSW 23:43:57 28° W 23:49:12 10° NW visible
24 Jul 4.8 22:32:16 46° SE 22:34:09 71° ENE 22:40:22 10° N visible
25 Jul 7.1 00:17:36 12° WSW 00:18:40 12° W 00:21:11 10° WNW visible
25 Jul 6.4 21:21:45 12° ESE 21:25:00 18° ENE 21:28:56 10° NNE visible
25 Jul 5.2 23:07:05 46° SW 23:08:32 57° W 23:14:40 10° NNW visible
